Location: Biltmore Gardens
(41.6070°N, 83.4666°W)
Time: 13:52:43
(UTC+00:00)

Cosmos 1844 Rocket - Pass Details

Date: 14 July 2020
Orbit: 826 x 843 km, 71.0° (Epoch: 04 August)

Event Time Altitude Azimuth Distance (km) Brightness Sun altitude
Rises 01:37:00 0° 330° (NNW) 3,372 7.2 -5.5°
Reaches altitude 10° 01:39:31 10° 324° (NW) 2,434 6.6 -5.9°
Maximum altitude 01:44:49 46° 253° (WSW) 1,103 3.7 -6.7°
Drops below altitude 10° 01:50:04 10° 181° (S) 2,422 4.7 -7.4°
Sets 01:52:35 0° 176° (S) 3,353 5.4 -7.8°
